[Date Prev][Date Next][Thread Prev][Thread Next] - [Date Index][Thread Index][Author Index]

2 Line ISS Keps 9-28



ISS
1 25544U 98067A   05271.08573113  .00018051  00000-0  13102-3 0  4432
2 25544 051.6433 093.9238 0001806 086.2857 013.4056 15.73472395391872
----
Via the sarex mailing list at AMSAT.ORG courtesy of AMSAT-NA.
To unsubscribe, send "unsubscribe sarex" to Majordomo@amsat.org



AMSAT Top AMSAT Home